Change the Weather History Date:

Saturday, October 6, 2012

  Actual Average Record
Temperature  
Mean Temperature 76 °F -  
Max Temperature 85 °F - - ()
Min Temperature 66 °F - - ()
Cooling Degree Days 10    
Growing Degree Days 26 (Base 50)    
Moisture  
Dew Point 68 °F    
Average Humidity 86    
Maximum Humidity 100    
Minimum Humidity 57    
Precipitation  
Precipitation 0.00 in - - ()
Sea Level Pressure  
Sea Level Pressure 30.12 in    
Wind  
Wind Speed 1 mph ()    
Max Wind Speed 4 mph    
Max Gust Speed -    
Visibility 12.0 miles    
Events      
T = Trace of Precipitation, MM = Missing Value Source: Averaged Metar Reports

Daily Weather History Graph

Daily Weather History Graph

Search for Another Location

Airport or City:

Trip Planner

Search our weather history database for the weather conditions in past years. The results will help you decide how hot, cold, wet, or windy it might be!

Date:

Astronomy

Oct. 06, 2012 Rise Set
Actual Time 7:04 AM CEST 6:36 PM CEST
Civil Twilight 6:37 AM CEST 7:04 PM CEST
Nautical Twilight 6:06 AM CEST 7:35 PM CEST
Astronomical Twilight 5:34 AM CEST 8:07 PM CEST
Moon 10:35 PM CEST (10/6) 12:47 PM CEST (10/6)
Length of Visible Light 12h 26m
Length of Day
11h 31m
Waning Gibbous, 68% of the Moon is Illuminated
Oct 6
Waning Gibbous
Oct 8
Last Quarter
Oct 15
New
Oct 22
First Quarter
Oct 29
Full

Hourly Weather History & Observations

Time (CEST) Temp. Heat Index Dew Point Humidity Pressure Visibility Wind Dir Wind Speed Gust Speed Precip Events Conditions
2:00 AM 68 °F - 67 °F 94% 30.12 in 12 mi Calm Calm - -  
4:55 AM 66.2 °F - 64.4 °F 94% 30.12 in - North - - N/A   Clear
5:00 AM 66 °F - 65 °F 94% 30.12 in 12 mi Calm Calm - -  
5:55 AM 66.2 °F - 64.4 °F 94% 30.12 in - North - - N/A   Clear
6:55 AM 66.2 °F - 64.4 °F 94% 30.12 in - North - - N/A   Clear
7:55 AM 66.2 °F - 64.4 °F 94% 30.12 in - North - - N/A   Clear
8:00 AM 66 °F - 64 °F 90% 30.12 in 12 mi Calm Calm - -  
8:55 AM 66.2 °F - 64.4 °F 94% 30.12 in - North - - N/A   Clear
9:55 AM 71.6 °F - 69.8 °F 94% 30.12 in - North - - N/A   Clear
10:55 AM 73.4 °F - 69.8 °F 88% 30.15 in - North - - N/A   Clear
11:00 AM 73 °F - 69 °F 84% 30.14 in 12 mi 1.2 mph - -  
11:55 AM 73.4 °F - 68.0 °F 83% 30.15 in - North - - N/A   Clear
12:55 PM 75.2 °F - 69.8 °F 83% 30.15 in - North - - N/A   Clear
1:55 PM 77.0 °F - 71.6 °F 83% 30.15 in - North - - N/A   Clear
2:00 PM 77 °F - 71 °F 76% 30.14 in 12 mi SSW 3.5 mph - -  
2:55 PM 82.4 °F 86.3 °F 69.8 °F 66% 30.12 in - North - - N/A   Clear
3:55 PM 84.2 °F 89.6 °F 71.6 °F 66% 30.12 in - North - - N/A   Clear
4:55 PM 84.2 °F 89.6 °F 71.6 °F 66% 30.12 in - North - - N/A   Clear
5:00 PM 85 °F - 72 °F 57% 30.10 in 12 mi SSW 3.5 mph - -  
5:55 PM 84.2 °F 89.6 °F 71.6 °F 66% 30.12 in - North - - N/A   Clear
6:55 PM 75.2 °F - 71.6 °F 89% 30.12 in - North - - N/A   Clear
7:55 PM 71.6 °F - 69.8 °F 94% 30.12 in - North - - N/A   Clear
8:55 PM 71.6 °F - 69.8 °F 94% 30.09 in - North - - N/A   Clear
9:55 PM 69.8 °F - 69.8 °F 100% 30.09 in - North - - N/A   Clear
10:55 PM 69.8 °F - 68.0 °F 94% 30.12 in - North - - N/A   Clear
11:00 PM 69 °F - 68 °F 94% 30.11 in 12 mi Calm Calm - -  
11:55 PM 69.8 °F - 66.2 °F 88% 30.09 in - North - - N/A   Clear